Location: Unspecified
(41.4057°N, 2.1753°E)
Time: 00:26:34
(UTC+02:00)

ISS - Visible Passes

Search period start: 23 October 2014 00:00
Search period end: 01 November 2014 23:00
Orbit: 413 x 416 km, 51.6° (Epoch: 22 October)

Date Brightness Start Highest point End Pass type
(mag) Time Alt. Az. Time Alt. Az. Time Alt. Az.
23 Oct -2.8 20:15:28 10° NW 20:18:41 43° NNE 20:19:26 36° ENE visible
24 Oct -2.2 19:26:27 10° NW 19:29:27 29° NNE 19:32:26 10° E visible
24 Oct -1.7 21:03:03 10° WNW 21:05:26 34° WSW 21:05:26 34° WSW visible
25 Oct -3.2 20:13:46 10° WNW 20:17:06 75° SW 20:18:41 28° SE visible
26 Oct -3.2 18:24:34 10° NW 18:27:53 63° NNE 18:31:11 10° ESE visible
26 Oct -0.6 20:02:12 10° W 20:04:14 15° SW 20:04:59 14° SSW visible
27 Oct -1.2 19:12:18 10° WNW 19:15:09 27° SW 19:18:00 10° SSE visible
28 Oct -2.2 18:22:45 10° WNW 18:25:59 48° SW 18:29:11 10° SE visible
30 Oct -0.3 18:21:23 10° W 18:23:42 18° SW 18:26:01 10° S visible
